TimePST,TemperatureF,Dew PointF,Humidity,Sea Level PressureIn,VisibilityMPH,Wind Direction,Wind SpeedMPH,Gust SpeedMPH,PrecipitationIn,Events,Conditions,WindDirDegrees,DateUTC
1:55 AM,37.0,19.0,48,30.06,10.0,WNW,6.9,-,N/A,,Scattered Clouds,300,2013-03-03 09:55:00
2:55 AM,34.0,19.0,54,30.06,10.0,NNW,4.6,-,N/A,,Clear,340,2013-03-03 10:55:00
4:55 AM,34.0,19.9,56,30.07,10.0,NW,5.8,-,N/A,,Clear,310,2013-03-03 12:55:00
5:55 AM,36.0,19.9,52,30.08,10.0,WNW,12.7,-,N/A,,Clear,290,2013-03-03 13:55:00
6:55 AM,36.0,21.9,57,30.08,10.0,NW,15.0,-,N/A,,Clear,310,2013-03-03 14:55:00
7:55 AM,37.9,21.9,53,30.08,10.0,NW,15.0,-,N/A,,Clear,310,2013-03-03 15:55:00
8:55 AM,42.1,19.9,41,30.08,10.0,WNW,17.3,28.8,N/A,,Clear,300,2013-03-03 16:55:00
9:55 AM,45.0,16.0,31,30.09,10.0,WNW,21.9,33.4,N/A,,Clear,290,2013-03-03 17:55:00
10:55 AM,46.0,16.0,30,30.09,10.0,WNW,24.2,31.1,N/A,,Clear,300,2013-03-03 18:55:00
11:55 AM,48.0,14.0,26,30.09,10.0,NW,24.2,31.1,N/A,,Clear,320,2013-03-03 19:55:00
12:55 PM,48.9,15.1,26,30.10,10.0,NW,20.7,-,N/A,,Clear,310,2013-03-03 20:55:00
1:55 PM,48.9,15.1,26,30.10,10.0,NW,24.2,32.2,N/A,,Clear,310,2013-03-03 21:55:00
2:55 PM,48.0,15.1,27,30.12,10.0,NW,25.3,29.9,N/A,,Clear,310,2013-03-03 22:55:00
3:55 PM,48.0,16.0,28,30.13,10.0,WNW,20.7,27.6,N/A,,Clear,290,2013-03-03 23:55:00
4:55 PM,46.0,17.1,31,30.15,10.0,WNW,21.9,-,N/A,,Clear,300,2013-03-04 00:55:00
5:55 PM,43.0,16.0,34,30.17,10.0,NW,20.7,-,N/A,,Clear,310,2013-03-04 01:55:00
6:55 PM,39.9,17.1,40,30.19,10.0,NW,11.5,-,N/A,,Clear,310,2013-03-04 02:55:00
7:55 PM,39.0,17.1,41,30.22,10.0,West,11.5,-,N/A,,Clear,280,2013-03-04 03:55:00
8:55 PM,37.0,18.0,46,30.22,10.0,West,5.8,-,N/A,,Clear,280,2013-03-04 04:55:00
9:55 PM,36.0,18.0,48,30.24,10.0,NNW,3.5,-,N/A,,Clear,330,2013-03-04 05:55:00
10:55 PM,34.0,19.0,54,30.25,10.0,North,6.9,-,N/A,,Clear,350,2013-03-04 06:55:00
11:55 PM,35.1,19.0,52,30.25,10.0,NNW,9.2,-,N/A,,Clear,340,2013-03-04 07:55:00